| time (UTC) | temp C | wind direction | speed KPH | gust KPH | rain 1hr cm | rain 24hr cm | rain mn cm | humidity % | barometer mb |
| 20260503210721 | 17 | 155 | 3.2 | 4.8 | 0.00 | 0.00 | 0.00 | 66 | 1019.7 |
| 20260503210219 | 17 | 201 | 3.2 | 3.2 | 0.00 | 0.00 | 0.00 | 66 | 1019.8 |
| 20260503205714 | 17 | 166 | 0.0 | 0.0 | 0.00 | 0.00 | 0.00 | 68 | 1019.7 |
| 20260503205210 | 16 | 152 | 1.6 | 3.2 | 0.00 | 0.00 | 0.00 | 70 | 1019.7 |
| 20260503204707 | 15 | 258 | 4.8 | 4.8 | 0.00 | 0.00 | 0.00 | 70 | 1019.7 |
| 20260503204205 | 16 | 242 | 6.4 | 6.4 | 0.00 | 0.00 | 0.00 | 68 | 1019.9 |
| 20260503203702 | 16 | 125 | 0.0 | 1.6 | 0.00 | 0.00 | 0.00 | 69 | 1019.9 |
| 20260503203200 | 16 | 132 | 1.6 | 1.6 | 0.00 | 0.00 | 0.00 | 70 | 1019.9 |
| 20260503202656 | 16 | 103 | 1.6 | 3.2 | 0.00 | 0.00 | 0.00 | 71 | 1020.2 |
| 20260503202154 | 16 | 46 | 1.6 | 1.6 | 0.00 | 0.00 | 0.00 | 71 | 1019.9 |
| 20260503201652 | 16 | 164 | 4.8 | 6.4 | 0.00 | 0.00 | 0.00 | 71 | 1019.8 |
| 20260503201149 | 16 | 185 | 4.8 | 6.4 | 0.00 | 0.00 | 0.00 | 71 | 1020.0 |
| 20260503200645 | 15 | 234 | 4.8 | 4.8 | 0.00 | 0.00 | 0.00 | 72 | 1020.1 |
| 20260503200142 | 16 | 85 | 1.6 | 3.2 | 0.00 | 0.00 | 0.00 | 71 | 1019.8 |
| 20260503195639 | 16 | 223 | 4.8 | 6.4 | 0.00 | 0.00 | 0.00 | 70 | 1020.1 |
| 20260503195136 | 17 | 119 | 0.0 | 0.0 | 0.00 | 0.00 | 0.00 | 67 | 1019.9 |
| 20260503194633 | 17 | 204 | 1.6 | 3.2 | 0.00 | 0.00 | 0.00 | 68 | 1019.9 |
| 20260503194127 | 16 | 138 | 1.6 | 1.6 | 0.00 | 0.00 | 0.00 | 66 | 1020.0 |
| 20260503193620 | 16 | 112 | 1.6 | 1.6 | 0.00 | 0.00 | 0.00 | 70 | 1020.1 |
| 20260503193115 | 16 | 168 | 3.2 | 3.2 | 0.00 | 0.00 | 0.00 | 69 | 1019.9 |
| 20260503192611 | 16 | 285 | 6.4 | 6.4 | 0.00 | 0.00 | 0.00 | 69 | 1020.1 |
| 20260503192106 | 17 | 168 | 1.6 | 3.2 | 0.00 | 0.00 | 0.00 | 67 | 1020.1 |
| 20260503191604 | 17 | 206 | 0.0 | 0.0 | 0.00 | 0.00 | 0.00 | 68 | 1020.0 |
| 20260503191100 | 17 | 125 | 1.6 | 1.6 | 0.00 | 0.00 | 0.00 | 66 | 1020.0 |
| 20260503190557 | 17 | 117 | 0.0 | 0.0 | 0.00 | 0.00 | 0.00 | 68 | 1020.0 |
| 20260503190054 | 17 | 124 | 0.0 | 1.6 | 0.00 | 0.00 | 0.00 | 67 | 1020.1 |
| 20260503185551 | 16 | 88 | 0.0 | 0.0 | 0.00 | 0.00 | 0.00 | 68 | 1020.0 |
| 20260503185050 | 15 | 210 | 6.4 | 9.7 | 0.00 | 0.00 | 0.00 | 69 | 1020.1 |
| 20260503184546 | 15 | 121 | 1.6 | 1.6 | 0.00 | 0.00 | 0.00 | 70 | 1020.2 |
| 20260503184043 | 16 | 177 | 1.6 | 3.2 | 0.00 | 0.00 | 0.00 | 68 | 1020.0 |
| 20260503183540 | 16 | 153 | 1.6 | 1.6 | 0.00 | 0.00 | 0.00 | 69 | 1020.2 |
| 20260503183037 | 16 | 124 | 0.0 | 1.6 | 0.00 | 0.00 | 0.00 | 68 | 1020.2 |
| 20260503182536 | 16 | 107 | 0.0 | 0.0 | 0.00 | 0.00 | 0.00 | 70 | 1020.1 |
| 20260503182033 | 15 | 250 | 1.6 | 3.2 | 0.00 | 0.00 | 0.00 | 71 | 1020.2 |
| 20260503181530 | 15 | 80 | 0.0 | 1.6 | 0.00 | 0.00 | 0.00 | 73 | 1020.1 |
| 20260503181026 | 15 | 255 | 4.8 | 4.8 | 0.00 | 0.00 | 0.00 | 71 | 1020.0 |
| 20260503180524 | 15 | 130 | 0.0 | 1.6 | 0.00 | 0.00 | 0.00 | 72 | 1020.1 |
| 20260503180021 | 15 | 159 | 1.6 | 3.2 | 0.00 | 0.00 | 0.00 | 73 | 1020.3 |
| 20260503175518 | 15 | 221 | 3.2 | 3.2 | 0.00 | 0.00 | 0.00 | 72 | 1020.3 |
| 20260503175015 | 15 | 205 | 4.8 | 4.8 | 0.00 | 0.00 | 0.00 | 76 | 1019.8 |
| 20260503174513 | 15 | 69 | 3.2 | 3.2 | 0.00 | 0.00 | 0.00 | 76 | 1020.1 |
| 20260503174008 | 15 | 172 | 1.6 | 3.2 | 0.00 | 0.00 | 0.00 | 74 | 1019.9 |
| 20260503173504 | 14 | 187 | 3.2 | 3.2 | 0.00 | 0.00 | 0.00 | 77 | 1019.8 |
| 20260503173000 | 15 | 154 | 1.6 | 3.2 | 0.00 | 0.00 | 0.00 | 76 | 1020.0 |
| 20260503172458 | 15 | 233 | 8.0 | 11.3 | 0.00 | 0.00 | 0.00 | 76 | 1020.0 |
| 20260503171955 | 14 | 110 | 0.0 | 1.6 | 0.00 | 0.00 | 0.00 | 76 | 1019.9 |
| 20260503171451 | 14 | 85 | 1.6 | 1.6 | 0.00 | 0.00 | 0.00 | 76 | 1020.1 |
| 20260503170949 | 14 | 165 | 0.0 | 0.0 | 0.00 | 0.00 | 0.00 | 78 | 1020.2 |
| 20260503170445 | 13 | 177 | 0.0 | 3.2 | 0.00 | 0.00 | 0.00 | 79 | 1020.2 |
| 20260503150837 | 12 | 99 | 0.0 | 0.0 | 0.00 | 0.00 | 0.00 | 88 | 1019.6 |
| 20260503150333 | 12 | 98 | 0.0 | 0.0 | 0.00 | 0.00 | 0.00 | 88 | 1019.6 |
| 20260503140257 | 11 | 125 | 0.0 | 0.0 | 0.00 | 0.00 | 0.00 | 90 | 1018.9 |
| 20260503131227 | 11 | 124 | 0.0 | 0.0 | 0.00 | 0.00 | 0.00 | 90 | 1018.6 |
| 20260503130725 | 11 | 124 | 0.0 | 0.0 | 0.00 | 0.00 | 0.00 | 90 | 1018.1 |
| 20260503130222 | 11 | 124 | 0.0 | 0.0 | 0.00 | 0.00 | 0.00 | 90 | 1018.1 |
| 20260503120148 | 11 | 136 | 0.0 | 0.0 | 0.00 | 0.00 | 0.00 | 91 | 1018.2 |
| 20260503110615 | 11 | 75 | 0.0 | 0.0 | 0.00 | 0.00 | 0.00 | 90 | 1018.2 |
| 20260503110113 | 11 | 109 | 0.0 | 0.0 | 0.00 | 0.00 | 0.00 | 90 | 1018.1 |
| 20260503090502 | 11 | 103 | 0.0 | 0.0 | 0.00 | 0.00 | 0.00 | 90 | 1018.4 |
| 20260503081428 | 11 | 122 | 0.0 | 0.0 | 0.00 | 0.00 | 0.00 | 88 | 1019.1 |
| 20260503080926 | 11 | 126 | 0.0 | 0.0 | 0.00 | 0.00 | 0.00 | 88 | 1019.1 |
| 20260503080422 | 11 | 116 | 0.0 | 0.0 | 0.00 | 0.00 | 0.00 | 88 | 1019.1 |
| 20260503072858 | 11 | 130 | 0.0 | 0.0 | 0.00 | 0.00 | 0.00 | 89 | 1019.4 |
| 20260503072355 | 11 | 131 | 0.0 | 0.0 | 0.00 | 0.00 | 0.00 | 89 | 1019.1 |
| 20260503071851 | 11 | 123 | 0.0 | 0.0 | 0.00 | 0.00 | 0.00 | 89 | 1019.1 |
| 20260503071349 | 11 | 111 | 0.0 | 0.0 | 0.00 | 0.00 | 0.00 | 89 | 1019.1 |
| 20260503070844 | 11 | 162 | 1.6 | 1.6 | 0.00 | 0.00 | 0.00 | 89 | 1019.4 |
| 20260503070338 | 11 | 148 | 0.0 | 1.6 | 0.00 | 0.00 | 0.00 | 89 | 1019.4 |
| 20260503060256 | 11 | 84 | 0.0 | 0.0 | 0.00 | 0.00 | 0.00 | 88 | 1019.3 |
| 20260503054743 | 11 | 185 | 1.6 | 1.6 | 0.00 | 0.00 | 0.00 | 87 | 1019.3 |
| 20260503054240 | 11 | 130 | 0.0 | 1.6 | 0.00 | 0.00 | 0.00 | 87 | 1019.5 |
| 20260503053738 | 11 | 132 | 0.0 | 1.6 | 0.00 | 0.00 | 0.00 | 88 | 1019.6 |
| 20260503053237 | 11 | 181 | 1.6 | 3.2 | 0.00 | 0.00 | 0.00 | 88 | 1019.5 |
| 20260503052732 | 11 | 187 | 0.0 | 1.6 | 0.00 | 0.00 | 0.00 | 87 | 1019.6 |
| 20260503052229 | 11 | 179 | 3.2 | 4.8 | 0.00 | 0.00 | 0.00 | 87 | 1019.5 |
| 20260503051724 | 12 | 199 | 3.2 | 4.8 | 0.00 | 0.00 | 0.00 | 87 | 1019.4 |
| 20260503051223 | 12 | 148 | 3.2 | 4.8 | 0.00 | 0.00 | 0.00 | 87 | 1019.6 |
| 20260503050719 | 11 | 169 | 6.4 | 9.7 | 0.00 | 0.00 | 0.00 | 86 | 1019.5 |
| 20260503050215 | 11 | 186 | 3.2 | 3.2 | 0.00 | 0.00 | 0.00 | 86 | 1019.4 |
| 20260503045713 | 11 | 113 | 1.6 | 3.2 | 0.00 | 0.00 | 0.00 | 86 | 1019.4 |
| 20260503045210 | 11 | 208 | 4.8 | 6.4 | 0.00 | 0.00 | 0.00 | 86 | 1019.5 |
| 20260503044707 | 11 | 59 | 3.2 | 3.2 | 0.00 | 0.00 | 0.00 | 87 | 1019.4 |
| 20260503044204 | 11 | 34 | 1.6 | 3.2 | 0.00 | 0.00 | 0.00 | 87 | 1019.4 |
| 20260503043700 | 11 | 256 | 1.6 | 4.8 | 0.00 | 0.00 | 0.00 | 87 | 1019.3 |
| 20260503043158 | 11 | 27 | 1.6 | 3.2 | 0.00 | 0.00 | 0.00 | 87 | 1019.5 |
| 20260503042654 | 11 | 63 | 1.6 | 1.6 | 0.00 | 0.00 | 0.00 | 88 | 1019.5 |
| 20260503042151 | 12 | 20 | 3.2 | 4.8 | 0.00 | 0.00 | 0.00 | 88 | 1019.3 |
| 20260503041647 | 12 | 241 | 3.2 | 4.8 | 0.00 | 0.00 | 0.00 | 87 | 1019.4 |
| 20260503041145 | 12 | 110 | 0.0 | 0.0 | 0.00 | 0.00 | 0.00 | 87 | 1019.2 |
| 20260503040642 | 12 | 207 | 3.2 | 3.2 | 0.00 | 0.00 | 0.00 | 87 | 1019.3 |
| 20260503040140 | 12 | 75 | 1.6 | 1.6 | 0.00 | 0.00 | 0.00 | 86 | 1019.2 |
| 20260503035636 | 12 | 78 | 3.2 | 3.2 | 0.00 | 0.00 | 0.00 | 86 | 1019.1 |
| 20260503035134 | 12 | 269 | 1.6 | 4.8 | 0.00 | 0.00 | 0.00 | 86 | 1019.1 |
| 20260503034631 | 12 | 64 | 1.6 | 3.2 | 0.00 | 0.00 | 0.00 | 85 | 1019.1 |
| 20260503034128 | 12 | 244 | 3.2 | 3.2 | 0.00 | 0.00 | 0.00 | 85 | 1019.0 |
| 20260503033625 | 12 | 179 | 0.0 | 0.0 | 0.00 | 0.00 | 0.00 | 85 | 1019.0 |
| 20260503033122 | 12 | 237 | 3.2 | 6.4 | 0.00 | 0.00 | 0.00 | 86 | 1018.9 |
| 20260503032621 | 12 | 127 | 1.6 | 3.2 | 0.00 | 0.00 | 0.00 | 86 | 1019.0 |
| 20260503032119 | 12 | 119 | 0.0 | 1.6 | 0.00 | 0.00 | 0.00 | 86 | 1019.0 |
| 20260503031616 | 12 | 88 | 1.6 | 1.6 | 0.00 | 0.00 | 0.00 | 86 | 1019.0 |
| 20260503031113 | 12 | 259 | 1.6 | 3.2 | 0.00 | 0.00 | 0.00 | 86 | 1018.7 |
| 20260503030609 | 12 | 232 | 4.8 | 6.4 | 0.00 | 0.00 | 0.00 | 86 | 1018.9 |
| 20260503030106 | 12 | 131 | 1.6 | 1.6 | 0.00 | 0.00 | 0.00 | 86 | 1018.6 |
| 20260503025603 | 12 | 248 | 8.0 | 16.1 | 0.00 | 0.00 | 0.00 | 86 | 1018.6 |
| 20260503025101 | 12 | 203 | 8.0 | 9.7 | 0.00 | 0.00 | 0.00 | 86 | 1018.5 |
| 20260503024557 | 12 | 237 | 8.0 | 11.3 | 0.00 | 0.00 | 0.00 | 86 | 1018.5 |
| 20260503024054 | 12 | 177 | 9.7 | 12.9 | 0.00 | 0.00 | 0.00 | 86 | 1018.4 |
| 20260503023551 | 12 | 74 | 3.2 | 3.2 | 0.00 | 0.00 | 0.00 | 85 | 1018.4 |
| 20260503023048 | 12 | 149 | 3.2 | 6.4 | 0.00 | 0.00 | 0.00 | 85 | 1018.1 |
| 20260503022544 | 12 | 266 | 9.7 | 16.1 | 0.00 | 0.00 | 0.00 | 85 | 1018.3 |
| 20260503022039 | 12 | 250 | 11.3 | 17.7 | 0.00 | 0.00 | 0.00 | 85 | 1018.2 |
| 20260503021536 | 12 | 225 | 6.4 | 9.7 | 0.00 | 0.00 | 0.00 | 84 | 1018.1 |
| 20260503021033 | 12 | 235 | 6.4 | 9.7 | 0.00 | 0.00 | 0.00 | 83 | 1018.4 |
| 20260503020530 | 12 | 238 | 8.0 | 12.9 | 0.00 | 0.00 | 0.00 | 83 | 1018.4 |
| 20260503020027 | 12 | 90 | 9.7 | 14.5 | 0.00 | 0.00 | 0.00 | 82 | 1018.4 |
| 20260503015524 | 12 | 209 | 6.4 | 9.7 | 0.00 | 0.00 | 0.00 | 82 | 1018.5 |
| 20260503015021 | 12 | 38 | 4.8 | 6.4 | 0.00 | 0.00 | 0.00 | 81 | 1018.6 |
| 20260503014517 | 12 | 75 | 3.2 | 4.8 | 0.00 | 0.00 | 0.00 | 81 | 1018.4 |
| 20260503014015 | 13 | 242 | 4.8 | 4.8 | 0.00 | 0.00 | 0.00 | 81 | 1018.6 |
| 20260503013512 | 12 | 244 | 6.4 | 11.3 | 0.00 | 0.00 | 0.00 | 81 | 1018.4 |
| 20260503013009 | 13 | 217 | 8.0 | 12.9 | 0.00 | 0.00 | 0.00 | 80 | 1018.6 |
| 20260503012507 | 13 | 173 | 3.2 | 3.2 | 0.00 | 0.00 | 0.00 | 81 | 1018.5 |
| 20260503012003 | 13 | 254 | 12.9 | 22.5 | 0.00 | 0.00 | 0.00 | 80 | 1018.6 |
| 20260503011459 | 13 | 219 | 6.4 | 16.1 | 0.00 | 0.00 | 0.00 | 80 | 1018.5 |
| 20260503010956 | 13 | 216 | 8.0 | 12.9 | 0.00 | 0.00 | 0.00 | 80 | 1018.8 |
| 20260503010453 | 13 | 265 | 6.4 | 9.7 | 0.00 | 0.00 | 0.00 | 80 | 1018.4 |
| 20260503005951 | 13 | 109 | 1.6 | 3.2 | 0.00 | 0.00 | 0.00 | 80 | 1018.5 |
| 20260503005448 | 13 | 218 | 8.0 | 11.3 | 0.00 | 0.00 | 0.00 | 79 | 1018.8 |
| 20260503004944 | 13 | 221 | 6.4 | 6.4 | 0.00 | 0.00 | 0.00 | 79 | 1018.7 |
| 20260503004441 | 13 | 201 | 3.2 | 3.2 | 0.00 | 0.00 | 0.00 | 79 | 1018.3 |
| 20260503003939 | 13 | 217 | 9.7 | 12.9 | 0.00 | 0.00 | 0.00 | 79 | 1018.6 |
| 20260503003435 | 13 | 232 | 9.7 | 12.9 | 0.00 | 0.00 | 0.00 | 79 | 1018.6 |
| 20260503002932 | 13 | 207 | 4.8 | 6.4 | 0.00 | 0.00 | 0.00 | 79 | 1018.5 |
| 20260503002430 | 13 | 151 | 3.2 | 3.2 | 0.00 | 0.00 | 0.00 | 80 | 1018.7 |
| 20260503001926 | 13 | 255 | 9.7 | 14.5 | 0.00 | 0.00 | 0.00 | 81 | 1018.7 |
| 20260503001422 | 13 | 223 | 3.2 | 4.8 | 0.00 | 0.00 | 0.00 | 80 | 1018.6 |
| 20260503000920 | 13 | 222 | 6.4 | 11.3 | 0.00 | 0.00 | 0.00 | 80 | 1018.6 |
| 20260503000417 | 14 | 229 | 8.0 | 12.9 | 0.00 | 0.00 | 0.00 | 79 | 1018.7 |
| 20260502235914 | 14 | 295 | 3.2 | 4.8 | 0.00 | 0.00 | 0.00 | 79 | 1018.8 |
| 20260502235411 | 13 | 340 | 8.0 | 12.9 | 0.00 | 0.00 | 0.00 | 79 | 1018.6 |
| 20260502234908 | 14 | 226 | 6.4 | 9.7 | 0.00 | 0.00 | 0.00 | 79 | 1018.7 |
| 20260502234405 | 15 | 219 | 3.2 | 4.8 | 0.00 | 0.00 | 0.00 | 78 | 1018.6 |
| 20260502233902 | 14 | 210 | 4.8 | 6.4 | 0.00 | 0.00 | 0.00 | 79 | 1018.8 |
| 20260502233357 | 14 | 236 | 6.4 | 14.5 | 0.00 | 0.00 | 0.00 | 79 | 1018.9 |
| 20260502232855 | 14 | 283 | 6.4 | 9.7 | 0.00 | 0.00 | 0.00 | 79 | 1018.8 |
| 20260502232351 | 15 | 206 | 9.7 | 14.5 | 0.00 | 0.00 | 0.00 | 77 | 1019.0 |
| 20260502231848 | 15 | 226 | 6.4 | 11.3 | 0.00 | 0.00 | 0.00 | 78 | 1019.0 |
| 20260502231346 | 14 | 235 | 3.2 | 3.2 | 0.00 | 0.00 | 0.00 | 79 | 1018.9 |
| 20260502230844 | 15 | 113 | 3.2 | 3.2 | 0.00 | 0.00 | 0.00 | 78 | 1019.1 |
| 20260502230342 | 15 | 219 | 16.1 | 24.1 | 0.00 | 0.00 | 0.00 | 77 | 1019.2 |
| 20260502225838 | 15 | 348 | 6.4 | 9.7 | 0.00 | 0.00 | 0.00 | 77 | 1019.1 |
| 20260502225335 | 15 | 167 | 3.2 | 3.2 | 0.00 | 0.00 | 0.00 | 78 | 1019.2 |
| 20260502224832 | 15 | 219 | 3.2 | 4.8 | 0.00 | 0.00 | 0.00 | 77 | 1019.5 |
| 20260502224328 | 15 | 186 | 6.4 | 9.7 | 0.00 | 0.00 | 0.00 | 78 | 1019.5 |
| 20260502223825 | 15 | 253 | 4.8 | 6.4 | 0.00 | 0.00 | 0.00 | 77 | 1019.6 |
| 20260502223323 | 15 | 192 | 3.2 | 3.2 | 0.00 | 0.00 | 0.00 | 77 | 1019.4 |
| 20260502222821 | 15 | 4 | 4.8 | 6.4 | 0.00 | 0.00 | 0.00 | 77 | 1019.5 |
| 20260502222318 | 15 | 47 | 4.8 | 6.4 | 0.00 | 0.00 | 0.00 | 77 | 1019.7 |
| 20260502221814 | 15 | 200 | 3.2 | 4.8 | 0.00 | 0.00 | 0.00 | 77 | 1019.6 |
| 20260502221310 | 15 | 250 | 6.4 | 9.7 | 0.00 | 0.00 | 0.00 | 76 | 1020.0 |
| 20260502220808 | 15 | 56 | 3.2 | 3.2 | 0.00 | 0.00 | 0.00 | 77 | 1019.8 |
| 20260502220303 | 15 | 8 | 9.7 | 12.9 | 0.00 | 0.00 | 0.00 | 77 | 1020.1 |
| 20260502215800 | 15 | 186 | 3.2 | 4.8 | 0.00 | 0.00 | 0.00 | 78 | 1020.0 |
| 20260502215257 | 15 | 72 | 8.0 | 11.3 | 0.00 | 0.00 | 0.00 | 77 | 1020.1 |
| 20260502214754 | 15 | 265 | 4.8 | 6.4 | 0.00 | 0.00 | 0.00 | 76 | 1020.0 |
| 20260502214251 | 15 | 205 | 3.2 | 4.8 | 0.00 | 0.00 | 0.00 | 77 | 1020.0 |
| 20260502213748 | 15 | 242 | 6.4 | 14.5 | 0.00 | 0.00 | 0.00 | 76 | 1020.2 |
| 20260502213245 | 15 | 201 | 3.2 | 4.8 | 0.00 | 0.00 | 0.00 | 77 | 1020.1 |
| 20260502212744 | 15 | 315 | 3.2 | 6.4 | 0.00 | 0.00 | 0.00 | 79 | 1020.3 |
| 20260502212242 | 15 | 216 | 6.4 | 9.7 | 0.00 | 0.00 | 0.00 | 78 | 1020.1 |
| 20260502211737 | 15 | 186 | 4.8 | 6.4 | 0.00 | 0.00 | 0.00 | 78 | 1020.2 |
| 20260502211234 | 15 | 285 | 6.4 | 12.9 | 0.00 | 0.00 | 0.00 | 77 | 1020.3 |